NOAA 16 DEB, 42422

Orbit data source: Space-Track

NOAA 16 DEB, 42422 is space debris in SSO originally from a launch on Thu, 21 Sep 2000 UTC launched from the Air Force Western Test Range (AFWTR). Debris objects in space refer to the collection of defunct objects orbiting the Earth. Examples of debris include non-operational satellites, rocket bodies, and fragments generated from explosions, collisions, or faulty payload assembly.

Loading next visibility...
Identifier
42422, 2000-055TS
Orbit
SSO
Country
Flag of USUS
Related business
Manufacturer
Unknown
Mission
Spacecraft
Bus & Motor
Unknown
Mass
Unknown
Launch date (UTC)
2000-09-21 (26 years ago)
Launch vehicle
Unknown
Launch site
Air Force Western Test Range (AFWTR)
Object type
Payload
Rocket body
Debris
Shape & HBR
Unknown shape, 0.1 m
Radar Cross Section
Small (<0.1 m²)

Expand to show TLE details & history
Last TLE update: 12 hours ago

TLE from 12 hours ago
0 NOAA 16 DEB
1 42422U 00055TS  26124.26392154  .00004384  00000-0  15675-2 0  9996
2 42422  98.7776 230.2292 0012263  75.7778 284.4767 14.34545973520713
Epoch: 2026-05-04T06:20Z
TLE epoch observation values (Epoch: 2026-05-04T06:20:02.821Z)
Latitude
-0.00006°
Longitude
-86.93816°
Altitude
777.324 km
Speed
7.466 km/s
True Right ascension
15h 20m 55s
True Declination
0° 00' 00"
Sunlit
Object was in full shadow at epoch
Visualization orbit readout
Latitude
Unknown
Longitude
Unknown
Altitude
Unknown
Speed
Unknown
Apparent Right ascension
Unknown
Apparent Declination
Unknown
Sunlit
N/A
Visualization observer readout
Local Sidereal Time
02:03:14
Azimuth
Unknown
Elevation
Unknown
Doppler factor
Unknown
Orbital elements
Apogee altitude
782.488 km
Perigee altitude
764.948 km
Semi-major axis
7,151.855 km
Eccentricity
0.00123
Inclination
98.7776°
RAAN
230.2292°
Arg. of periapsis
75.7778°
True anomaly
284.34059°
Mean anomaly
284.4767°
Eccentric anomaly
284.40865°
Mean motion
3.58852 °/min
Orbital period
100.32 mins
BSTAR
0.0015675
Loading maneuver chart data...
Computing Atmospheric mass density...
Loading historical data...
Loading historical data...
Loading historical data...
Loading historical data...
Loading historical data...
Loading historical data...
Loading historical data...

Documentation

Showing up to 5 results
|